Change the Weather History Date:

Monday, January 28, 2013

  Actual Average (KNHK) Record (KNHK)
Temperature  
Mean Temperature 40 °F -  
Max Temperature 50 °F 41 °F 68 °F (1999)
Min Temperature 30 °F 23 °F 6 °F (1987)
Degree Days  
Heating Degree Days 25    
Moisture  
Dew Point 32 °F    
Average Humidity 77    
Maximum Humidity 100    
Minimum Humidity 62    
Precipitation  
Precipitation 0.00 in - - ()
Sea Level Pressure  
Sea Level Pressure 30.30 in    
Wind  
Wind Speed 5 mph (SSW)    
Max Wind Speed 14 mph    
Max Gust Speed 21 mph    
Visibility 9 miles    
Events      
Averages and records for this station are not official NWS values.
T = Trace of Precipitation, MM = Missing Value Source: NWS Daily Summary

Daily Weather History Graph

Daily Weather History Graph

Search for Another Location

Airport or City:

Trip Planner

Search our weather history database for the weather conditions in past years. The results will help you decide how hot, cold, wet, or windy it might be!

Date:

Astronomy

Jan. 28, 2013 Rise Set
Actual Time 7:14 AM EST 5:24 PM EST
Civil Twilight 6:46 AM EST 5:52 PM EST
Nautical Twilight 6:14 AM EST 6:24 PM EST
Astronomical Twilight 5:43 AM EST 6:55 PM EST
Moon 7:14 PM EST (1/28) 7:40 AM EST (1/28)
Length of Visible Light 11h 06m
Length of Day
10h 10m
Full, 98% of the Moon is Illuminated
Jan 28
Full
Feb 3
Last Quarter
Feb 10
New
Feb 17
First Quarter
Feb 25
Full

Hourly Weather History & Observations

Time (EST) Temp. Windchill Dew Point Humidity Pressure Visibility Wind Dir Wind Speed Gust Speed Precip Events Conditions
12:11 AM 30.2 °F - 24.8 °F 80% 30.54 in 10.0 mi Calm Calm - N/A   Clear
12:32 AM 30.2 °F - 24.8 °F 80% 30.53 in 10.0 mi Calm Calm - N/A   Clear
12:53 AM 32.0 °F - 24.8 °F 75% 30.52 in 10.0 mi Calm Calm - N/A   Clear
1:15 AM 32.0 °F 27.5 °F 24.8 °F 75% 30.50 in 10.0 mi SSE 4.6 mph - N/A   Mostly Cloudy
1:36 AM 32.0 °F - 24.8 °F 75% 30.51 in 10.0 mi Calm Calm - N/A   Scattered Clouds
1:57 AM 32.0 °F - 24.8 °F 75% 30.51 in 10.0 mi Calm Calm - N/A   Mostly Cloudy
2:19 AM 32.0 °F 28.7 °F 24.8 °F 75% 30.50 in 10.0 mi SSE 3.5 mph - N/A   Overcast
2:40 AM 32.0 °F - 24.8 °F 75% 30.50 in 10.0 mi Calm Calm - N/A   Overcast
3:01 AM 32.0 °F - 24.8 °F 75% 30.49 in 10.0 mi Calm Calm - N/A   Overcast
3:23 AM 32.0 °F - 24.8 °F 75% 30.48 in 10.0 mi Calm Calm - N/A   Overcast
3:44 AM 32.0 °F 28.7 °F 24.8 °F 75% 30.47 in 10.0 mi South 3.5 mph - N/A   Overcast
4:05 AM 32.0 °F 28.7 °F 26.6 °F 80% 30.46 in 10.0 mi South 3.5 mph - N/A   Overcast
4:27 AM 32.0 °F 28.7 °F 24.8 °F 75% 30.46 in 10.0 mi South 3.5 mph - N/A   Overcast
4:48 AM 32.0 °F 28.7 °F 24.8 °F 75% 30.46 in 10.0 mi South 3.5 mph - N/A   Overcast
5:09 AM 32.0 °F 28.7 °F 24.8 °F 75% 30.45 in 10.0 mi SSW 3.5 mph - N/A   Overcast
5:30 AM 33.8 °F 27.7 °F 24.8 °F 70% 30.44 in 10.0 mi South 6.9 mph - N/A   Overcast
5:52 AM 32.0 °F 24.8 °F 26.6 °F 80% 30.44 in 10.0 mi SSW 8.1 mph - N/A   Overcast
6:13 AM 32.0 °F 26.4 °F 26.6 °F 80% 30.44 in 10.0 mi SSW 5.8 mph - N/A   Overcast
6:56 AM 32.0 °F 27.5 °F 28.4 °F 87% 30.45 in 7.0 mi SSW 4.6 mph - N/A   Overcast
7:17 AM 32.0 °F 25.6 °F 28.4 °F 87% 30.46 in 5.0 mi SSW 6.9 mph - N/A   Overcast
7:38 AM 32.0 °F 26.4 °F 30.2 °F 93% 30.46 in 4.0 mi SSW 5.8 mph - N/A   Overcast
7:59 AM 32.0 °F 27.5 °F 30.2 °F 93% 30.45 in 3.0 mi SSW 4.6 mph - N/A   Overcast
8:21 AM 32.0 °F 25.6 °F 30.2 °F 93% 30.44 in 3.0 mi SSW 6.9 mph - N/A   Overcast
8:42 AM 32.0 °F 25.6 °F 30.2 °F 93% 30.42 in 4.0 mi SSW 6.9 mph - N/A   Overcast
9:03 AM 32.0 °F 24.2 °F 30.2 °F 93% 30.42 in 3.0 mi SSW 9.2 mph - N/A   Overcast
9:24 AM 32.0 °F 25.6 °F 30.2 °F 93% 30.42 in 4.0 mi SSW 6.9 mph - N/A   Overcast
10:07 AM 32.0 °F 26.4 °F 32.0 °F 100% 30.39 in 3.0 mi SSW 5.8 mph - N/A   Overcast
10:28 AM 32.0 °F 25.6 °F 32.0 °F 100% 30.39 in 4.0 mi SSW 6.9 mph - N/A   Overcast
10:49 AM 32.0 °F 24.2 °F 32.0 °F 100% 30.39 in 4.0 mi SSW 9.2 mph - N/A   Overcast
11:11 AM 33.8 °F 27.7 °F 32.0 °F 93% 30.36 in 4.0 mi South 6.9 mph - N/A   Overcast
11:32 AM 33.8 °F 27.7 °F 32.0 °F 93% 30.34 in 4.0 mi SSW 6.9 mph - N/A   Overcast
11:53 AM 33.8 °F 26.4 °F 32.0 °F 93% 30.34 in 5.0 mi SSW 9.2 mph 16.1 mph N/A   Overcast
12:14 PM 35.6 °F 28.6 °F 33.8 °F 93% 30.30 in 5.0 mi SSW 9.2 mph 16.1 mph N/A   Overcast
12:57 PM 39.2 °F 32.0 °F 33.8 °F 81% 30.25 in 10.0 mi SSW 11.5 mph 20.7 mph N/A   Scattered Clouds
1:18 PM 41.0 °F 33.5 °F 33.8 °F 76% 30.22 in 10.0 mi SSW 13.8 mph 20.7 mph N/A   Clear
1:40 PM 41.0 °F 34.3 °F 33.8 °F 76% 30.21 in 10.0 mi SW 11.5 mph 20.7 mph N/A   Clear
2:01 PM 41.0 °F 34.3 °F 33.8 °F 76% 30.20 in 10.0 mi SW 11.5 mph 18.4 mph N/A   Clear
2:22 PM 42.8 °F 38.0 °F 33.8 °F 70% 30.18 in 10.0 mi SW 8.1 mph - N/A   Clear
2:43 PM 44.6 °F 39.2 °F 33.8 °F 66% 30.17 in 10.0 mi SW 10.4 mph 17.3 mph N/A   Clear
3:05 PM 44.6 °F 39.2 °F 33.8 °F 66% 30.16 in 10.0 mi SW 10.4 mph 16.1 mph N/A   Scattered Clouds
3:26 PM 44.6 °F 39.2 °F 33.8 °F 66% 30.16 in 10.0 mi SW 10.4 mph - N/A   Overcast
3:47 PM 44.6 °F 40.2 °F 33.8 °F 66% 30.15 in 10.0 mi SSW 8.1 mph - N/A   Overcast
4:08 PM 44.6 °F 40.2 °F 35.6 °F 71% 30.14 in 10.0 mi SSW 8.1 mph - N/A   Overcast
4:30 PM 46.4 °F 41.9 °F 35.6 °F 66% 30.14 in 10.0 mi SSW 9.2 mph - N/A   Overcast
4:51 PM 46.4 °F 42.4 °F 35.6 °F 66% 30.15 in 10.0 mi SW 8.1 mph - N/A   Mostly Cloudy
5:12 PM 46.4 °F 42.4 °F 35.6 °F 66% 30.15 in 10.0 mi SW 8.1 mph - N/A   Overcast
5:33 PM 46.4 °F 41.9 °F 35.6 °F 66% 30.14 in 10.0 mi SW 9.2 mph - N/A   Scattered Clouds
5:54 PM 46.4 °F 41.5 °F 35.6 °F 66% 30.13 in 10.0 mi SSW 10.4 mph - N/A   Clear
6:16 PM 46.4 °F 41.9 °F 35.6 °F 66% 30.13 in 10.0 mi SW 9.2 mph - N/A   Scattered Clouds
6:37 PM 46.4 °F 41.9 °F 35.6 °F 66% 30.13 in 10.0 mi SW 9.2 mph - N/A   Overcast
6:58 PM 46.4 °F 42.4 °F 35.6 °F 66% 30.13 in 10.0 mi SW 8.1 mph - N/A   Overcast
7:19 PM 46.4 °F 41.9 °F 37.4 °F 71% 30.13 in 10.0 mi SW 9.2 mph - N/A   Overcast
7:41 PM 46.4 °F 41.9 °F 37.4 °F 71% 30.12 in 10.0 mi SW 9.2 mph - N/A   Overcast
8:02 PM 48.2 °F - 37.4 °F 66% 30.12 in 10.0 mi SW 10.4 mph 16.1 mph N/A   Overcast
8:23 PM 50.0 °F - 37.4 °F 62% 30.10 in 10.0 mi SW 12.7 mph 17.3 mph N/A   Overcast
8:44 PM 50.0 °F - 39.2 °F 66% 30.10 in 10.0 mi SW 10.4 mph 18.4 mph N/A   Overcast
9:06 PM 48.2 °F - 39.2 °F 71% 30.10 in 10.0 mi SW 10.4 mph - N/A   Mostly Cloudy
9:27 PM 48.2 °F - 41.0 °F 76% 30.09 in 10.0 mi SW 9.2 mph - N/A   Mostly Cloudy
9:48 PM 48.2 °F - 41.0 °F 76% 30.10 in 10.0 mi SW 8.1 mph - N/A   Scattered Clouds
10:09 PM 48.2 °F - 41.0 °F 76% 30.10 in 10.0 mi SW 6.9 mph - N/A   Clear
10:31 PM 48.2 °F - 41.0 °F 76% 30.10 in 10.0 mi SW 10.4 mph - N/A   Clear
10:52 PM 50.0 °F - 41.0 °F 71% 30.10 in 10.0 mi SW 8.1 mph - N/A   Clear
11:13 PM 48.2 °F - 41.0 °F 76% 30.10 in 10.0 mi SW 11.5 mph - N/A   Clear
11:56 PM 48.2 °F - 41.0 °F 76% 30.10 in 10.0 mi SW 10.4 mph 16.1 mph N/A   Clear